Location: Banff
(51.1667°N, 115.5667°W)
Time: 06:05:26
(UTC+00:00)

S-56A Canister/Altair - Pass Details

Date: 27 November 2020
Orbit: 633 x 2499 km, 38.9° (Epoch: 21 January)

Event Time Altitude Azimuth Distance (km) Brightness Sun altitude
Rises 02:41:24 0° 208° (SSW) 5,515 12.3 -27.4°
Reaches altitude 10° 02:46:43 10° 193° (SSW) 4,163 11.4 -28.3°
Enters shadow 02:53:03 19° 157° (SSE) 3,047 10.3 -29.3°
Maximum altitude 02:53:17 19° 155° (SSE) 3,027 - -29.3°
Drops below altitude 10° 02:58:31 10° 115° (ESE) 3,213 - -30.1°
Sets 03:01:54 0° 97° (E) 3,884 - -30.7°
